owner,sensor,date,latitude,longitude,mass_concentration_of_chlorophyll_in_sea_water,qcFlag 
SCCF RECON,ioos:station:SCCF:11:1,2019-11-01T04:00:00Z,26.4679,-82.0631,10.7,11111222 
SCCF RECON,ioos:station:SCCF:11:1,2019-11-01T05:00:00Z,26.4679,-82.0631,15.07,11111222 
SCCF RECON,ioos:station:SCCF:11:1,2019-11-01T06:00:00Z,26.4679,-82.0631,11.12,11111222 
SCCF RECON,ioos:station:SCCF:11:1,2019-11-01T07:00:00Z,26.4679,-82.0631,9.92,11111222 
SCCF RECON,ioos:station:SCCF:11:1,2019-11-01T08:00:00Z,26.4679,-82.0631,8.07,11111222 
SCCF RECON,ioos:station:SCCF:11:1,2019-11-01T09:00:00Z,26.4679,-82.0631,6.35,11111222 
SCCF RECON,ioos:station:SCCF:11:1,2019-11-01T10:00:00Z,26.4679,-82.0631,8.29,11111222 
SCCF RECON,ioos:station:SCCF:11:1,2019-11-01T11:00:00Z,26.4679,-82.0631,8.73,11111222 
SCCF RECON,ioos:station:SCCF:11:1,2019-11-01T12:00:00Z,26.4679,-82.0631,10.34,11111222 
SCCF RECON,ioos:station:SCCF:11:1,2019-11-01T13:00:00Z,26.4679,-82.0631,9.34,11111222 
SCCF RECON,ioos:station:SCCF:11:1,2019-11-01T14:00:00Z,26.4679,-82.0631,10.43,11111222 
SCCF RECON,ioos:station:SCCF:11:1,2019-11-01T15:00:00Z,26.4679,-82.0631,8.9,11111222 
SCCF RECON,ioos:station:SCCF:11:1,2019-11-01T16:00:00Z,26.4679,-82.0631,6.75,11111222 
SCCF RECON,ioos:station:SCCF:11:1,2019-11-01T17:00:00Z,26.4679,-82.0631,8.83,11111222 
SCCF RECON,ioos:station:SCCF:11:1,2019-11-01T18:00:00Z,26.4679,-82.0631,11.34,11111222 
SCCF RECON,ioos:station:SCCF:11:1,2019-11-01T19:00:00Z,26.4679,-82.0631,17.5,11111222 
SCCF RECON,ioos:station:SCCF:11:1,2019-11-01T20:00:00Z,26.4679,-82.0631,17.3,11111222 
SCCF RECON,ioos:station:SCCF:11:1,2019-11-01T21:00:00Z,26.4679,-82.0631,17.14,11111222 
SCCF RECON,ioos:station:SCCF:11:1,2019-11-01T22:00:00Z,26.4679,-82.0631,21.27,11111222 
SCCF RECON,ioos:station:SCCF:11:1,2019-11-02T04:00:00Z,26.4679,-82.0631,17.86,11111222 
SCCF RECON,ioos:station:SCCF:11:1,2019-11-02T05:00:00Z,26.4679,-82.0631,18.51,11111222 
SCCF RECON,ioos:station:SCCF:11:1,2019-11-02T06:00:00Z,26.4679,-82.0631,14.59,11111222 
SCCF RECON,ioos:station:SCCF:11:1,2019-11-02T07:00:00Z,26.4679,-82.0631,16.87,11111222 
SCCF RECON,ioos:station:SCCF:11:1,2019-11-02T08:00:00Z,26.4679,-82.0631,14.33,11111222 
SCCF RECON,ioos:station:SCCF:11:1,2019-11-02T09:00:00Z,26.4679,-82.0631,14.55,11111222 
SCCF RECON,ioos:station:SCCF:11:1,2019-11-02T10:00:00Z,26.4679,-82.0631,13.67,11111222 
SCCF RECON,ioos:station:SCCF:11:1,2019-11-02T11:00:00Z,26.4679,-82.0631,13.87,11111222 
SCCF RECON,ioos:station:SCCF:11:1,2019-11-02T12:00:00Z,26.4679,-82.0631,13.18,11111222 
SCCF RECON,ioos:station:SCCF:11:1,2019-11-02T13:00:00Z,26.4679,-82.0631,11.24,11111222 
SCCF RECON,ioos:station:SCCF:11:1,2019-11-02T14:00:00Z,26.4679,-82.0631,11.25,11111222 
SCCF RECON,ioos:station:SCCF:11:1,2019-11-02T15:00:00Z,26.4679,-82.0631,9.83,11111222 
SCCF RECON,ioos:station:SCCF:11:1,2019-11-02T16:00:00Z,26.4679,-82.0631,11.48,11111222 
SCCF RECON,ioos:station:SCCF:11:1,2019-11-02T17:00:00Z,26.4679,-82.0631,8.98,11111222 
SCCF RECON,ioos:station:SCCF:11:1,2019-11-02T18:00:00Z,26.4679,-82.0631,15.65,11111222 
SCCF RECON,ioos:station:SCCF:11:1,2019-11-02T19:00:00Z,26.4679,-82.0631,17.82,11111222 
SCCF RECON,ioos:station:SCCF:11:1,2019-11-02T20:00:00Z,26.4679,-82.0631,13.99,11111222 
SCCF RECON,ioos:station:SCCF:11:1,2019-11-02T21:00:00Z,26.4679,-82.0631,16.43,11111222 
SCCF RECON,ioos:station:SCCF:11:1,2019-11-02T22:00:00Z,26.4679,-82.0631,15.84,11111222 
SCCF RECON,ioos:station:SCCF:11:1,2019-11-03T04:00:00Z,26.4679,-82.0631,13.74,11111222 
SCCF RECON,ioos:station:SCCF:11:1,2019-11-03T05:00:00Z,26.4679,-82.0631,15.13,11111222 
SCCF RECON,ioos:station:SCCF:11:1,2019-11-03T06:00:00Z,26.4679,-82.0631,17.64,11111222 
SCCF RECON,ioos:station:SCCF:11:1,2019-11-03T07:00:00Z,26.4679,-82.0631,22.06,11111222 
SCCF RECON,ioos:station:SCCF:11:1,2019-11-03T08:00:00Z,26.4679,-82.0631,18.13,11111222 
SCCF RECON,ioos:station:SCCF:11:1,2019-11-03T09:00:00Z,26.4679,-82.0631,18.87,11111222 
SCCF RECON,ioos:station:SCCF:11:1,2019-11-03T10:00:00Z,26.4679,-82.0631,19.47,11111222 
SCCF RECON,ioos:station:SCCF:11:1,2019-11-03T11:00:00Z,26.4679,-82.0631,13.99,11111222 
SCCF RECON,ioos:station:SCCF:11:1,2019-11-03T12:00:00Z,26.4679,-82.0631,18.36,11111222 
SCCF RECON,ioos:station:SCCF:11:1,2019-11-03T13:00:00Z,26.4679,-82.0631,16.26,11111222 
SCCF RECON,ioos:station:SCCF:11:1,2019-11-03T14:00:00Z,26.4679,-82.0631,15.49,11111222 
SCCF RECON,ioos:station:SCCF:11:1,2019-11-03T15:00:00Z,26.4679,-82.0631,14.83,11111222 
SCCF RECON,ioos:station:SCCF:11:1,2019-11-03T16:00:00Z,26.4679,-82.0631,14.1,11111222 
SCCF RECON,ioos:station:SCCF:11:1,2019-11-03T17:00:00Z,26.4679,-82.0631,14.1,11111222 
SCCF RECON,ioos:station:SCCF:11:1,2019-11-03T18:00:00Z,26.4679,-82.0631,13.58,11111222 
SCCF RECON,ioos:station:SCCF:11:1,2019-11-03T19:00:00Z,26.4679,-82.0631,14.87,11111222 
SCCF RECON,ioos:station:SCCF:11:1,2019-11-03T20:00:00Z,26.4679,-82.0631,17.68,11111222 
SCCF RECON,ioos:station:SCCF:11:1,2019-11-03T21:00:00Z,26.4679,-82.0631,30.28,11111222 
SCCF RECON,ioos:station:SCCF:11:1,2019-11-03T22:00:00Z,26.4679,-82.0631,33.71,11111222 
SCCF RECON,ioos:station:SCCF:11:1,2019-11-04T05:00:00Z,26.4679,-82.0631,15.8,11111222 
SCCF RECON,ioos:station:SCCF:11:1,2019-11-04T16:00:00Z,26.4679,-82.0631,15.32,11111222 
SCCF RECON,ioos:station:SCCF:11:1,2019-11-04T17:00:00Z,26.4679,-82.0631,14.84,11111222 
SCCF RECON,ioos:station:SCCF:11:1,2019-11-04T18:00:00Z,26.4679,-82.0631,16.29,11111222 
SCCF RECON,ioos:station:SCCF:11:1,2019-11-04T19:00:00Z,26.4679,-82.0631,12.34,11111222 
SCCF RECON,ioos:station:SCCF:11:1,2019-11-04T20:00:00Z,26.4679,-82.0631,13.22,11111222 
SCCF RECON,ioos:station:SCCF:11:1,2019-11-04T21:00:00Z,26.4679,-82.0631,27.27,11111222 
SCCF RECON,ioos:station:SCCF:11:1,2019-11-04T22:00:00Z,26.4679,-82.0631,23.74,11111222 
SCCF RECON,ioos:station:SCCF:11:1,2019-11-05T05:00:00Z,26.4679,-82.0631,17.58,11111222 
SCCF RECON,ioos:station:SCCF:11:1,2019-11-05T06:00:00Z,26.4679,-82.0631,16.66,11111222 
SCCF RECON,ioos:station:SCCF:11:1,2019-11-05T07:00:00Z,26.4679,-82.0631,12.23,11111222 
SCCF RECON,ioos:station:SCCF:11:1,2019-11-05T08:00:00Z,26.4679,-82.0631,22.54,11111222 
SCCF RECON,ioos:station:SCCF:11:1,2019-11-05T09:00:00Z,26.4679,-82.0631,15.77,11111222 
SCCF RECON,ioos:station:SCCF:11:1,2019-11-05T10:00:00Z,26.4679,-82.0631,19.79,11111222 
SCCF RECON,ioos:station:SCCF:11:1,2019-11-05T11:00:00Z,26.4679,-82.0631,12.09,11111222 
SCCF RECON,ioos:station:SCCF:11:1,2019-11-05T12:00:00Z,26.4679,-82.0631,10.62,11111222 
SCCF RECON,ioos:station:SCCF:11:1,2019-11-05T13:00:00Z,26.4679,-82.0631,15.28,11111222 
SCCF RECON,ioos:station:SCCF:11:1,2019-11-05T14:00:00Z,26.4679,-82.0631,13.73,11111222 
SCCF RECON,ioos:station:SCCF:11:1,2019-11-05T15:00:00Z,26.4679,-82.0631,10.16,11111222 
SCCF RECON,ioos:station:SCCF:11:1,2019-11-05T16:00:00Z,26.4679,-82.0631,9.51,11111222 
SCCF RECON,ioos:station:SCCF:11:1,2019-11-05T17:00:00Z,26.4679,-82.0631,11.5,11111222 
SCCF RECON,ioos:station:SCCF:11:1,2019-11-05T18:00:00Z,26.4679,-82.0631,16.21,11111222 
SCCF RECON,ioos:station:SCCF:11:1,2019-11-05T19:00:00Z,26.4679,-82.0631,14.8,11111222 
SCCF RECON,ioos:station:SCCF:11:1,2019-11-05T20:00:00Z,26.4679,-82.0631,14.35,11111222 
SCCF RECON,ioos:station:SCCF:11:1,2019-11-05T21:00:00Z,26.4679,-82.0631,13.41,11111222 
SCCF RECON,ioos:station:SCCF:11:1,2019-11-05T22:00:00Z,26.4679,-82.0631,12.65,11111222 
SCCF RECON,ioos:station:SCCF:11:1,2019-11-06T05:00:00Z,26.4679,-82.0631,11.43,11111222 
SCCF RECON,ioos:station:SCCF:11:1,2019-11-06T06:00:00Z,26.4679,-82.0631,10.6,11111222 
SCCF RECON,ioos:station:SCCF:11:1,2019-11-06T07:00:00Z,26.4679,-82.0631,11.79,11111222 
SCCF RECON,ioos:station:SCCF:11:1,2019-11-06T08:00:00Z,26.4679,-82.0631,13.34,11111222 
SCCF RECON,ioos:station:SCCF:11:1,2019-11-06T09:00:00Z,26.4679,-82.0631,9.13,11111222 
SCCF RECON,ioos:station:SCCF:11:1,2019-11-06T10:00:00Z,26.4679,-82.0631,11.98,11111222 
SCCF RECON,ioos:station:SCCF:11:1,2019-11-06T11:00:00Z,26.4679,-82.0631,11.39,11111222 
SCCF RECON,ioos:station:SCCF:11:1,2019-11-06T12:00:00Z,26.4679,-82.0631,21.12,11111222 
SCCF RECON,ioos:station:SCCF:11:1,2019-11-06T13:00:00Z,26.4679,-82.0631,21.67,11111222 
SCCF RECON,ioos:station:SCCF:11:1,2019-11-06T14:00:00Z,26.4679,-82.0631,19.81,11111222 
SCCF RECON,ioos:station:SCCF:11:1,2019-11-06T15:00:00Z,26.4679,-82.0631,13.49,11111222 
SCCF RECON,ioos:station:SCCF:11:1,2019-11-06T16:00:00Z,26.4679,-82.0631,14.78,11111222 
SCCF RECON,ioos:station:SCCF:11:1,2019-11-06T17:00:00Z,26.4679,-82.0631,12.58,11111222 
SCCF RECON,ioos:station:SCCF:11:1,2019-11-06T18:00:00Z,26.4679,-82.0631,14.32,11111222 
SCCF RECON,ioos:station:SCCF:11:1,2019-11-06T19:00:00Z,26.4679,-82.0631,14.15,11111222 
SCCF RECON,ioos:station:SCCF:11:1,2019-11-06T20:00:00Z,26.4679,-82.0631,15.27,11111222 
SCCF RECON,ioos:station:SCCF:11:1,2019-11-06T21:00:00Z,26.4679,-82.0631,12.73,11111222 
SCCF RECON,ioos:station:SCCF:11:1,2019-11-06T22:00:00Z,26.4679,-82.0631,16.42,11111222 
SCCF RECON,ioos:station:SCCF:11:1,2019-11-07T05:00:00Z,26.4679,-82.0631,11.87,11111222 
SCCF RECON,ioos:station:SCCF:11:1,2019-11-07T06:00:00Z,26.4679,-82.0631,12.06,11111222 
SCCF RECON,ioos:station:SCCF:11:1,2019-11-07T07:00:00Z,26.4679,-82.0631,11.73,11111222 
SCCF RECON,ioos:station:SCCF:11:1,2019-11-07T08:00:00Z,26.4679,-82.0631,11.46,11111222 
SCCF RECON,ioos:station:SCCF:11:1,2019-11-07T09:00:00Z,26.4679,-82.0631,10.83,11111222 
SCCF RECON,ioos:station:SCCF:11:1,2019-11-07T10:00:00Z,26.4679,-82.0631,9.83,11111222 
SCCF RECON,ioos:station:SCCF:11:1,2019-11-07T11:00:00Z,26.4679,-82.0631,14.31,11111222 
SCCF RECON,ioos:station:SCCF:11:1,2019-11-07T12:00:00Z,26.4679,-82.0631,18.56,11111222 
SCCF RECON,ioos:station:SCCF:11:1,2019-11-07T13:00:00Z,26.4679,-82.0631,15.98,11111222 
SCCF RECON,ioos:station:SCCF:11:1,2019-11-07T14:00:00Z,26.4679,-82.0631,18.67,11111222 
SCCF RECON,ioos:station:SCCF:11:1,2019-11-07T15:00:00Z,26.4679,-82.0631,14.47,11111222 
SCCF RECON,ioos:station:SCCF:11:1,2019-11-07T16:00:00Z,26.4679,-82.0631,15.52,11111222 
SCCF RECON,ioos:station:SCCF:11:1,2019-11-07T17:00:00Z,26.4679,-82.0631,16.11,11111222 
SCCF RECON,ioos:station:SCCF:11:1,2019-11-07T18:00:00Z,26.4679,-82.0631,13.31,11111222 
SCCF RECON,ioos:station:SCCF:11:1,2019-11-07T19:00:00Z,26.4679,-82.0631,14.77,11111222 
SCCF RECON,ioos:station:SCCF:11:1,2019-11-07T20:00:00Z,26.4679,-82.0631,17.17,11111222 
SCCF RECON,ioos:station:SCCF:11:1,2019-11-07T21:00:00Z,26.4679,-82.0631,14.77,11111222 
SCCF RECON,ioos:station:SCCF:11:1,2019-11-07T22:00:00Z,26.4679,-82.0631,18.15,11111222 
SCCF RECON,ioos:station:SCCF:11:1,2019-11-08T05:00:00Z,26.4679,-82.0631,11.82,11111222 
SCCF RECON,ioos:station:SCCF:11:1,2019-11-08T06:00:00Z,26.4679,-82.0631,10.44,11111222 
SCCF RECON,ioos:station:SCCF:11:1,2019-11-08T07:00:00Z,26.4679,-82.0631,10.91,11111222 
SCCF RECON,ioos:station:SCCF:11:1,2019-11-08T08:00:00Z,26.4679,-82.0631,12.41,11111222 
SCCF RECON,ioos:station:SCCF:11:1,2019-11-08T09:00:00Z,26.4679,-82.0631,13.28,11111222 
SCCF RECON,ioos:station:SCCF:11:1,2019-11-08T10:00:00Z,26.4679,-82.0631,12.54,11111222 
SCCF RECON,ioos:station:SCCF:11:1,2019-11-08T11:00:00Z,26.4679,-82.0631,11.21,11111222 
SCCF RECON,ioos:station:SCCF:11:1,2019-11-08T12:00:00Z,26.4679,-82.0631,14.44,11111222 
SCCF RECON,ioos:station:SCCF:11:1,2019-11-08T13:00:00Z,26.4679,-82.0631,16.16,11111222 
SCCF RECON,ioos:station:SCCF:11:1,2019-11-08T14:00:00Z,26.4679,-82.0631,15.89,11111222 
SCCF RECON,ioos:station:SCCF:11:1,2019-11-08T15:00:00Z,26.4679,-82.0631,12.28,11111222 
SCCF RECON,ioos:station:SCCF:11:1,2019-11-08T16:00:00Z,26.4679,-82.0631,24.8,11111222 
SCCF RECON,ioos:station:SCCF:11:1,2019-11-08T17:00:00Z,26.4679,-82.0631,16.54,11111222 
SCCF RECON,ioos:station:SCCF:11:1,2019-11-08T18:00:00Z,26.4679,-82.0631,15.36,11111222 
SCCF RECON,ioos:station:SCCF:11:1,2019-11-08T19:00:00Z,26.4679,-82.0631,13.95,11111222 
SCCF RECON,ioos:station:SCCF:11:1,2019-11-08T20:00:00Z,26.4679,-82.0631,14.44,11111222 
SCCF RECON,ioos:station:SCCF:11:1,2019-11-08T21:00:00Z,26.4679,-82.0631,13.75,11111222 
SCCF RECON,ioos:station:SCCF:11:1,2019-11-08T22:00:00Z,26.4679,-82.0631,15.21,11111222 
SCCF RECON,ioos:station:SCCF:11:1,2019-11-09T05:00:00Z,26.4679,-82.0631,11.1,11111222 
SCCF RECON,ioos:station:SCCF:11:1,2019-11-09T06:00:00Z,26.4679,-82.0631,10.2,11111222 
SCCF RECON,ioos:station:SCCF:11:1,2019-11-09T07:00:00Z,26.4679,-82.0631,9.89,11111222 
SCCF RECON,ioos:station:SCCF:11:1,2019-11-09T08:00:00Z,26.4679,-82.0631,9.88,11111222 
SCCF RECON,ioos:station:SCCF:11:1,2019-11-09T09:00:00Z,26.4679,-82.0631,9.58,11111222 
SCCF RECON,ioos:station:SCCF:11:1,2019-11-09T10:00:00Z,26.4679,-82.0631,9.47,11111222 
SCCF RECON,ioos:station:SCCF:11:1,2019-11-09T11:00:00Z,26.4679,-82.0631,10.2,11111222 
SCCF RECON,ioos:station:SCCF:11:1,2019-11-09T12:00:00Z,26.4679,-82.0631,12.1,11111222 
SCCF RECON,ioos:station:SCCF:11:1,2019-11-09T13:00:00Z,26.4679,-82.0631,11.56,11111222 
SCCF RECON,ioos:station:SCCF:11:1,2019-11-09T14:00:00Z,26.4679,-82.0631,14.62,11111222 
SCCF RECON,ioos:station:SCCF:11:1,2019-11-09T15:00:00Z,26.4679,-82.0631,15.5,11111222 
SCCF RECON,ioos:station:SCCF:11:1,2019-11-09T16:00:00Z,26.4679,-82.0631,14.82,11111222 
SCCF RECON,ioos:station:SCCF:11:1,2019-11-09T17:00:00Z,26.4679,-82.0631,13.0,11111222 
SCCF RECON,ioos:station:SCCF:11:1,2019-11-09T18:00:00Z,26.4679,-82.0631,13.47,11111222 
SCCF RECON,ioos:station:SCCF:11:1,2019-11-09T19:00:00Z,26.4679,-82.0631,14.22,11111222 
SCCF RECON,ioos:station:SCCF:11:1,2019-11-09T20:00:00Z,26.4679,-82.0631,14.94,11111222 
SCCF RECON,ioos:station:SCCF:11:1,2019-11-09T21:00:00Z,26.4679,-82.0631,16.03,11111222 
SCCF RECON,ioos:station:SCCF:11:1,2019-11-09T22:00:00Z,26.4679,-82.0631,15.3,11111222 
SCCF RECON,ioos:station:SCCF:11:1,2019-11-10T05:00:00Z,26.4679,-82.0631,15.52,11111222 
SCCF RECON,ioos:station:SCCF:11:1,2019-11-10T06:00:00Z,26.4679,-82.0631,11.67,11111222 
SCCF RECON,ioos:station:SCCF:11:1,2019-11-10T07:00:00Z,26.4679,-82.0631,10.14,11111222 
SCCF RECON,ioos:station:SCCF:11:1,2019-11-10T08:00:00Z,26.4679,-82.0631,10.25,11111222 
SCCF RECON,ioos:station:SCCF:11:1,2019-11-10T09:00:00Z,26.4679,-82.0631,9.98,11111222 
SCCF RECON,ioos:station:SCCF:11:1,2019-11-10T10:00:00Z,26.4679,-82.0631,10.2,11111222 
SCCF RECON,ioos:station:SCCF:11:1,2019-11-10T11:00:00Z,26.4679,-82.0631,13.33,11111222 
SCCF RECON,ioos:station:SCCF:11:1,2019-11-10T12:00:00Z,26.4679,-82.0631,13.93,11111222 
SCCF RECON,ioos:station:SCCF:11:1,2019-11-10T13:00:00Z,26.4679,-82.0631,12.93,11111222 
SCCF RECON,ioos:station:SCCF:11:1,2019-11-10T14:00:00Z,26.4679,-82.0631,13.92,11111222 
SCCF RECON,ioos:station:SCCF:11:1,2019-11-10T15:00:00Z,26.4679,-82.0631,13.68,11111222 
SCCF RECON,ioos:station:SCCF:11:1,2019-11-10T16:00:00Z,26.4679,-82.0631,14.06,11111222 
SCCF RECON,ioos:station:SCCF:11:1,2019-11-10T17:00:00Z,26.4679,-82.0631,12.89,11111222 
SCCF RECON,ioos:station:SCCF:11:1,2019-11-10T18:00:00Z,26.4679,-82.0631,13.68,11111222 
SCCF RECON,ioos:station:SCCF:11:1,2019-11-10T19:00:00Z,26.4679,-82.0631,14.52,11111222 
SCCF RECON,ioos:station:SCCF:11:1,2019-11-10T20:00:00Z,26.4679,-82.0631,12.62,11111222 
SCCF RECON,ioos:station:SCCF:11:1,2019-11-10T21:00:00Z,26.4679,-82.0631,12.77,11111222 
SCCF RECON,ioos:station:SCCF:11:1,2019-11-10T22:00:00Z,26.4679,-82.0631,13.24,11111222 
SCCF RECON,ioos:station:SCCF:11:1,2019-11-11T05:00:00Z,26.4679,-82.0631,15.05,11111222 
SCCF RECON,ioos:station:SCCF:11:1,2019-11-11T06:00:00Z,26.4679,-82.0631,11.49,11111222 
SCCF RECON,ioos:station:SCCF:11:1,2019-11-11T07:00:00Z,26.4679,-82.0631,10.56,11111222 
SCCF RECON,ioos:station:SCCF:11:1,2019-11-11T08:00:00Z,26.4679,-82.0631,10.34,11111222 
SCCF RECON,ioos:station:SCCF:11:1,2019-11-11T09:00:00Z,26.4679,-82.0631,9.82,11111222 
SCCF RECON,ioos:station:SCCF:11:1,2019-11-11T10:00:00Z,26.4679,-82.0631,9.13,11111222 
SCCF RECON,ioos:station:SCCF:11:1,2019-11-11T11:00:00Z,26.4679,-82.0631,9.36,11111222 
SCCF RECON,ioos:station:SCCF:11:1,2019-11-11T12:00:00Z,26.4679,-82.0631,9.03,11111222 
SCCF RECON,ioos:station:SCCF:11:1,2019-11-11T13:00:00Z,26.4679,-82.0631,11.35,11111222 
SCCF RECON,ioos:station:SCCF:11:1,2019-11-11T14:00:00Z,26.4679,-82.0631,9.61,11111222 
SCCF RECON,ioos:station:SCCF:11:1,2019-11-11T15:00:00Z,26.4679,-82.0631,11.94,11111222 
SCCF RECON,ioos:station:SCCF:11:1,2019-11-11T16:00:00Z,26.4679,-82.0631,13.66,11111222 
SCCF RECON,ioos:station:SCCF:11:1,2019-11-11T17:00:00Z,26.4679,-82.0631,9.35,11111222 
SCCF RECON,ioos:station:SCCF:11:1,2019-11-11T18:00:00Z,26.4679,-82.0631,11.19,11111222 
SCCF RECON,ioos:station:SCCF:11:1,2019-11-11T19:00:00Z,26.4679,-82.0631,9.01,11111222 
SCCF RECON,ioos:station:SCCF:11:1,2019-11-11T20:00:00Z,26.4679,-82.0631,10.62,11111222 
SCCF RECON,ioos:station:SCCF:11:1,2019-11-11T21:00:00Z,26.4679,-82.0631,9.8,11111222 
SCCF RECON,ioos:station:SCCF:11:1,2019-11-11T22:00:00Z,26.4679,-82.0631,10.41,11111222 
SCCF RECON,ioos:station:SCCF:11:1,2019-11-12T05:00:00Z,26.4679,-82.0631,10.83,11111222 
SCCF RECON,ioos:station:SCCF:11:1,2019-11-12T06:00:00Z,26.4679,-82.0631,6.33,11111222 
SCCF RECON,ioos:station:SCCF:11:1,2019-11-12T07:00:00Z,26.4679,-82.0631,8.68,11111222 
SCCF RECON,ioos:station:SCCF:11:1,2019-11-12T08:00:00Z,26.4679,-82.0631,8.73,11111222 
SCCF RECON,ioos:station:SCCF:11:1,2019-11-12T09:00:00Z,26.4679,-82.0631,8.3,11111222 
SCCF RECON,ioos:station:SCCF:11:1,2019-11-12T10:00:00Z,26.4679,-82.0631,7.5,11111222 
SCCF RECON,ioos:station:SCCF:11:1,2019-11-12T11:00:00Z,26.4679,-82.0631,7.69,11111222 
SCCF RECON,ioos:station:SCCF:11:1,2019-11-12T12:00:00Z,26.4679,-82.0631,8.79,11111222 
SCCF RECON,ioos:station:SCCF:11:1,2019-11-12T13:00:00Z,26.4679,-82.0631,8.47,11111222 
SCCF RECON,ioos:station:SCCF:11:1,2019-11-12T14:00:00Z,26.4679,-82.0631,9.1,11111222 
SCCF RECON,ioos:station:SCCF:11:1,2019-11-12T15:00:00Z,26.4679,-82.0631,9.62,11111222 
SCCF RECON,ioos:station:SCCF:11:1,2019-11-12T16:00:00Z,26.4679,-82.0631,15.2,11111222 
SCCF RECON,ioos:station:SCCF:11:1,2019-11-12T17:00:00Z,26.4679,-82.0631,10.42,11111222 
SCCF RECON,ioos:station:SCCF:11:1,2019-11-12T18:00:00Z,26.4679,-82.0631,10.14,11111222 
SCCF RECON,ioos:station:SCCF:11:1,2019-11-12T19:00:00Z,26.4679,-82.0631,7.45,11111222 
SCCF RECON,ioos:station:SCCF:11:1,2019-11-12T20:00:00Z,26.4679,-82.0631,6.41,11111222 
SCCF RECON,ioos:station:SCCF:11:1,2019-11-12T21:00:00Z,26.4679,-82.0631,8.92,11111222 
SCCF RECON,ioos:station:SCCF:11:1,2019-11-12T22:00:00Z,26.4679,-82.0631,8.58,11111222 
SCCF RECON,ioos:station:SCCF:11:1,2019-11-13T05:00:00Z,26.4679,-82.0631,10.02,11111222 
SCCF RECON,ioos:station:SCCF:11:1,2019-11-13T06:00:00Z,26.4679,-82.0631,8.28,11111222 
SCCF RECON,ioos:station:SCCF:11:1,2019-11-13T07:00:00Z,26.4679,-82.0631,9.44,11111222 
SCCF RECON,ioos:station:SCCF:11:1,2019-11-13T08:00:00Z,26.4679,-82.0631,9.47,11111222 
SCCF RECON,ioos:station:SCCF:11:1,2019-11-13T09:00:00Z,26.4679,-82.0631,9.22,11111222 
SCCF RECON,ioos:station:SCCF:11:1,2019-11-13T10:00:00Z,26.4679,-82.0631,9.23,11111222 
SCCF RECON,ioos:station:SCCF:11:1,2019-11-13T11:00:00Z,26.4679,-82.0631,8.73,11111222 
SCCF RECON,ioos:station:SCCF:11:1,2019-11-13T12:00:00Z,26.4679,-82.0631,9.71,11111222 
SCCF RECON,ioos:station:SCCF:11:1,2019-11-13T13:00:00Z,26.4679,-82.0631,13.37,11111222 
SCCF RECON,ioos:station:SCCF:11:1,2019-11-13T14:00:00Z,26.4679,-82.0631,9.34,11111222 
SCCF RECON,ioos:station:SCCF:11:1,2019-11-13T15:00:00Z,26.4679,-82.0631,11.04,11111222 
SCCF RECON,ioos:station:SCCF:11:1,2019-11-13T16:00:00Z,26.4679,-82.0631,12.71,11111222 
SCCF RECON,ioos:station:SCCF:11:1,2019-11-13T17:00:00Z,26.4679,-82.0631,12.61,11111222 
SCCF RECON,ioos:station:SCCF:11:1,2019-11-13T18:00:00Z,26.4679,-82.0631,12.3,11111222 
SCCF RECON,ioos:station:SCCF:11:1,2019-11-13T19:00:00Z,26.4679,-82.0631,14.36,11111222 
SCCF RECON,ioos:station:SCCF:11:1,2019-11-13T20:00:00Z,26.4679,-82.0631,14.36,11111222 
SCCF RECON,ioos:station:SCCF:11:1,2019-11-13T21:00:00Z,26.4679,-82.0631,11.55,11111222 
SCCF RECON,ioos:station:SCCF:11:1,2019-11-13T22:00:00Z,26.4679,-82.0631,13.35,11111222 
SCCF RECON,ioos:station:SCCF:11:1,2019-11-14T05:00:00Z,26.4679,-82.0631,14.16,11111222 
SCCF RECON,ioos:station:SCCF:11:1,2019-11-14T06:00:00Z,26.4679,-82.0631,15.72,11111222 
SCCF RECON,ioos:station:SCCF:11:1,2019-11-14T07:00:00Z,26.4679,-82.0631,13.62,11111222 
SCCF RECON,ioos:station:SCCF:11:1,2019-11-14T08:00:00Z,26.4679,-82.0631,11.11,11111222 
SCCF RECON,ioos:station:SCCF:11:1,2019-11-14T09:00:00Z,26.4679,-82.0631,10.46,11111222 
SCCF RECON,ioos:station:SCCF:11:1,2019-11-14T10:00:00Z,26.4679,-82.0631,9.94,11111222 
SCCF RECON,ioos:station:SCCF:11:1,2019-11-14T11:00:00Z,26.4679,-82.0631,9.0,11111222 
SCCF RECON,ioos:station:SCCF:11:1,2019-11-14T12:00:00Z,26.4679,-82.0631,9.15,11111222 
SCCF RECON,ioos:station:SCCF:11:1,2019-11-14T13:00:00Z,26.4679,-82.0631,14.05,11111222 
SCCF RECON,ioos:station:SCCF:11:1,2019-11-14T14:00:00Z,26.4679,-82.0631,7.29,11111222 
SCCF RECON,ioos:station:SCCF:11:1,2019-11-14T15:00:00Z,26.4679,-82.0631,11.2,11111222 
SCCF RECON,ioos:station:SCCF:11:1,2019-11-14T16:00:00Z,26.4679,-82.0631,11.12,11111222 
SCCF RECON,ioos:station:SCCF:11:1,2019-11-14T17:00:00Z,26.4679,-82.0631,13.16,11111222 
SCCF RECON,ioos:station:SCCF:11:1,2019-11-14T18:00:00Z,26.4679,-82.0631,12.27,11111222 
SCCF RECON,ioos:station:SCCF:11:1,2019-11-14T19:00:00Z,26.4679,-82.0631,14.91,11111222 
SCCF RECON,ioos:station:SCCF:11:1,2019-11-14T20:00:00Z,26.4679,-82.0631,14.26,11111222 
SCCF RECON,ioos:station:SCCF:11:1,2019-11-14T21:00:00Z,26.4679,-82.0631,10.99,11111222 
SCCF RECON,ioos:station:SCCF:11:1,2019-11-14T22:00:00Z,26.4679,-82.0631,12.47,11111222 
SCCF RECON,ioos:station:SCCF:11:1,2019-11-15T05:00:00Z,26.4679,-82.0631,12.46,11111222 
SCCF RECON,ioos:station:SCCF:11:1,2019-11-15T06:00:00Z,26.4679,-82.0631,12.48,11111222 
SCCF RECON,ioos:station:SCCF:11:1,2019-11-15T07:00:00Z,26.4679,-82.0631,9.54,11111222 
SCCF RECON,ioos:station:SCCF:11:1,2019-11-15T08:00:00Z,26.4679,-82.0631,7.24,11111222 
SCCF RECON,ioos:station:SCCF:11:1,2019-11-15T09:00:00Z,26.4679,-82.0631,7.32,11111222 
SCCF RECON,ioos:station:SCCF:11:1,2019-11-15T10:00:00Z,26.4679,-82.0631,7.62,11111222 
SCCF RECON,ioos:station:SCCF:11:1,2019-11-15T11:00:00Z,26.4679,-82.0631,9.06,11111222 
SCCF RECON,ioos:station:SCCF:11:1,2019-11-15T12:00:00Z,26.4679,-82.0631,10.83,11111222 
SCCF RECON,ioos:station:SCCF:11:1,2019-11-15T13:00:00Z,26.4679,-82.0631,8.82,11111222 
SCCF RECON,ioos:station:SCCF:11:1,2019-11-15T14:00:00Z,26.4679,-82.0631,7.88,11111222 
SCCF RECON,ioos:station:SCCF:11:1,2019-11-15T15:00:00Z,26.4679,-82.0631,8.46,11111222 
SCCF RECON,ioos:station:SCCF:11:1,2019-11-15T16:00:00Z,26.4679,-82.0631,8.98,11111222 
SCCF RECON,ioos:station:SCCF:11:1,2019-11-15T17:00:00Z,26.4679,-82.0631,7.91,11111222 
SCCF RECON,ioos:station:SCCF:11:1,2019-11-15T18:00:00Z,26.4679,-82.0631,9.68,11111222 
SCCF RECON,ioos:station:SCCF:11:1,2019-11-15T19:00:00Z,26.4679,-82.0631,12.41,11111222 
SCCF RECON,ioos:station:SCCF:11:1,2019-11-15T20:00:00Z,26.4679,-82.0631,10.12,11111222 
SCCF RECON,ioos:station:SCCF:11:1,2019-11-15T22:00:00Z,26.4679,-82.0631,13.25,11111222 
SCCF RECON,ioos:station:SCCF:11:1,2019-11-16T05:00:00Z,26.4679,-82.0631,10.02,11111222 
SCCF RECON,ioos:station:SCCF:11:1,2019-11-16T06:00:00Z,26.4679,-82.0631,12.72,11111222 
SCCF RECON,ioos:station:SCCF:11:1,2019-11-16T07:00:00Z,26.4679,-82.0631,10.61,11111222 
SCCF RECON,ioos:station:SCCF:11:1,2019-11-16T08:00:00Z,26.4679,-82.0631,9.14,11111222 
SCCF RECON,ioos:station:SCCF:11:1,2019-11-16T09:00:00Z,26.4679,-82.0631,8.1,11111222 
SCCF RECON,ioos:station:SCCF:11:1,2019-11-16T10:00:00Z,26.4679,-82.0631,7.68,11111222 
SCCF RECON,ioos:station:SCCF:11:1,2019-11-16T11:00:00Z,26.4679,-82.0631,6.12,11111222 
SCCF RECON,ioos:station:SCCF:11:1,2019-11-16T12:00:00Z,26.4679,-82.0631,10.1,11111222 
SCCF RECON,ioos:station:SCCF:11:1,2019-11-16T13:00:00Z,26.4679,-82.0631,10.82,11111222 
SCCF RECON,ioos:station:SCCF:11:1,2019-11-16T14:00:00Z,26.4679,-82.0631,6.54,11111222 